Current weather by "City, St" or "zip code"  
 

Current Conditions: Socorro Municipal Airport, NM

Fair


71.0 F

Last Updated on Sep 18 2020, 10:55 am MDT
Humidity: 32%
Wind Speed: N 0.0 mph
Barometer 30.35 in
Dewpoint: 39.7 F
Visibility: 10.00 mi
Precip: --
Heat Index: NA
Wind Chill: NA
Current conditions at:

Socorro Municipal Airport, NM (KONM)

Lat: 34.02633 Lon: 106.90372

Local Radar Image active severe weather and emergency alerts image image weather storm and storm spotter reports image weather observation monitoring service image
Local
Radar
Active
Alerts
Storm Reports Obs
Monitoring

Sign-up For Email & Text Message Weather Alert Notification Services



Advertise Here

Observation History for Socorro Municipal Airport, NM


Time Wind
(mph)
Vis
(mi)
Weather Precip (in) Temperature (F) Relative
Humidity
Wind
Chill
(F)
Heat
Index
(F)
Pressure
Air Dwpt altimeter
(in)
sea level
(mb)
Rmks
10:55 am MDT N 0.0 10.00 Fair -- 71.0 39.7 32% NA NA 30.35 M
10:35 am MDT N 4.6 10.00 Fair -- 71.0 39.9 33% NA NA 30.36 M
9:55 am MDT N 6.9 10.00 Fair -- 68.0 41.0 38% NA NA 30.35 M
8:55 am MDT N 4.6 10.00 Fair -- 63.0 39.9 43% 64 NA 30.34 M
8:35 am MDT N 0.0 10.00 Fair -- 61.0 39.0 44% NA NA 30.35 M
7:55 am MDT N 0.0 10.00 Fair -- 56.0 38.7 52% NA NA 30.33 M
6:55 am MDT NW 3.5 10.00 Fair -- 53.0 38.7 58% NA NA 30.32 M
5:55 am MDT NW 3.5 10.00 Fair -- 55.0 39.2 56% NA NA 30.30 M
4:55 am MDT NW 4.6 10.00 Fair -- 56.0 37.9 50% 55 NA 30.29 M
4:35 am MDT NW 3.5 10.00 Fair -- 55.0 39.0 56% NA NA 30.28 M
3:55 am MDT NW 3.5 10.00 Fair -- 57.0 38.3 50% NA NA 30.28 M
2:55 am MDT SW 8.1 10.00 Fair -- 60.0 36.0 41% 59 NA 30.28 M
1:55 am MDT S 4.6 10.00 Fair -- 61.0 35.8 39% 61 NA 30.28 M
1:35 am MDT SW 6.9 10.00 Fair -- 61.0 34.7 37% 60 NA 30.27 M
12:55 am MDT SW 6.9 10.00 Fair -- 62.0 34.7 36% 62 NA 30.27 M
12:35 am MDT SW 6.9 10.00 Fair -- 62.0 35.4 37% 62 NA 30.27 M
11:55 pm MDT SW 5.8 10.00 Fair -- 64.0 34.3 33% NA NA 30.28 M
10:55 pm MDT SW 8.1 10.00 Fair -- 64.0 35.6 35% NA NA 30.27 M
9:55 pm MDT N 0.0 10.00 Fair -- 65.0 37.6 37% NA NA 30.27 M
8:55 pm MDT SW 3.5 10.00 Fair -- 65.0 40.1 40% NA NA 30.25 M
7:55 pm MDT W 3.5 10.00 Fair -- 67.0 41.0 38% NA NA 30.23 M
6:55 pm MDT N 0.0 10.00 Fair -- 76.0 37.6 25% NA NA 30.21 M
5:55 pm MDT N 3.5 10.00 Fair -- 81.0 32.5 17% NA 79 30.22 M
4:55 pm MDT NW 4.6 10.00 Fair -- 82.0 32.0 16% NA 80 30.22 M

Regional Weather Observation


Belen Alexander Muni Airport, NM (KE80)

Fair
54.0 F

Truth Or Consequences, Truth Or Consequences Municipal Airport, NM (KTCS)

Fair
75.0 F

Moriarty Municipal Airport, NM (K0E0)

Fair
70.0 F

Albuquerque, Albuquerque International Airport, NM (KABQ)

Fair
70.0 F

Albuquerque, Double Eagle II Airport, NM (KAEG)

Smoke
70.0 F

Grants, Grants-Milan Municipal Airport, NM (KGNT)

Fair
71.0 F